User: anonymous   Login
Location: ???????
(54.9996°N, 37.9529°E)
Time: 01:48:26
(UTC+00:00)
Language:

Cosmos 1733 - Orbit

View from above orbital plane
View from above orbital plane
View from above satellite
View from above satellite

Ground track
Ground track

The orbit data is extracted from the following two-line orbital elements,

1 16611U 86018A   24174.60680067  .00011618  00000-0  34094-3 0  9999
2 16611  82.4811   8.9051 0009685  53.9503 306.2635 15.34977518 97862
Epoch (UTC): 22 June 2024 14:33:47
Eccentricity: 0.0009685
inclination: 82.4811°
perigee height: 454 km
apogee height: 467 km
right ascension of ascending node: 8.9051°
argument of perigee: 53.9503°
revolutions per day: 15.34977518
mean anomaly at epoch: 306.2635°
orbit number at epoch: 9786

The dashed part of the orbit path shows where the satellite is in the earth's shadow,  

DLR